Kosmos-2012

operational
NORAD ID: 19906 Int'l Des: 1989-025 Owner: UNKS Country: SU
LEOCIRCULAR

Kosmos-2012について

説明を読み込み中...

リアルタイム位置

3D地球を読み込み中...

次回通過

高度履歴

Altitude vs Time

uPlot chart will show altitude changes over time

軌道要素

1 19906U 89025E 26063.13671659 -.00000004 00000-0 75941-4 0 9999
2 19906 74.0072 77.1179 0009960 14.5882 53.7828 12.50244796686149
Epoch: Mar 4, 2026 • Age: 10 hours

現在のステータス

高度 1486.2 km
速度 7.12 km/s
衛星直下点 -42.95°S, 38.19°W
打ち上げ日 Mar 24, 1989
運用期間 36.9 years
タイプ other

技術仕様

分類 Payload
質量 60.00 kg
乾燥質量 60.00 kg
総質量 60.00 kg
長さ 0.80 m
直径 0.80 m
スパン 0.80 m
形状 Poly
製造者 NPOPM
バスタイプ Strela-1 11F625
フェーズステータス In Orbit
所有者/国 UNKS/SU

大規模コンステレーション

Loading constellations...